CW5091 Weather Reports


Display with metric or nautical units.
time (UTC)temp
F
wind
direction
speed
MPH
gust
MPH
rain 1hr
in
rain 24hr
in
rain mn
in
humidity
%
barometer
mb
20170822204745 85 150 1.0 5.0 0.00 0.00 0.00 29 1022.7
20170822203236 81 167 1.0 5.0 0.00 0.00 0.00 33 1022.9
20170822201739 84 132 1.0 5.0 0.00 0.00 0.00 29 1022.8
20170822200232 85 170 1.0 4.0 0.00 0.00 0.00 27 1022.9
20170822194731 83 146 0.0 1.0 0.00 0.00 0.00 28 1023.1
20170822193228 81 109 0.0 2.0 0.00 0.00 0.00 34 1023.5
20170822191728 83 141 0.0 4.0 0.00 0.00 0.00 35 1023.7
20170822190225 82 180 0.0 2.0 0.00 0.00 0.00 32 1023.9
20170822184728 81 183 0.0 2.0 0.00 0.00 0.00 34 1024.1
20170822183225 82 175 0.0 3.0 0.00 0.00 0.00 34 1024.2
20170822181724 82 144 1.0 4.0 0.00 0.00 0.00 33 1024.4
20170822180219 82 144 1.0 6.0 0.00 0.00 0.00 36 1024.4
20170822174714 79 138 0.0 3.0 0.00 0.00 0.00 38 1024.5
20170822173212 76 140 0.0 2.0 0.00 0.00 0.00 45 1024.6
20170822171714 75 140 0.0 2.0 0.00 0.00 0.00 50 1024.8
20170822170204 72 140 0.0 1.0 0.00 0.00 0.00 52 1024.9
20170822164702 72 142 0.0 1.0 0.00 0.00 0.00 52 1024.9
20170822163202 71 148 0.0 2.0 0.00 0.00 0.00 51 1024.9
20170822161734 71 148 0.0 3.0 0.00 0.00 0.00 51 1024.8
20170822160154 69 183 0.0 3.0 0.00 0.00 0.00 56 1024.8
20170822154659 69 187 0.0 2.0 0.00 0.00 0.00 58 1024.7
20170822153150 69 186 0.0 2.0 0.00 0.00 0.00 56 1024.6
20170822151646 67 181 0.0 2.0 0.00 0.00 0.00 61 1024.5
20170822150146 65 181 0.0 1.0 0.00 0.00 0.00 66 1024.5
20170822144749 64 181 0.0 1.0 0.00 0.00 0.00 68 1024.5
20170822143152 63 179 0.0 0.0 0.00 0.00 0.00 68 1024.5
20170822141640 64 178 0.0 1.0 0.00 0.00 0.00 67 1024.6
20170822140138 64 178 0.0 0.0 0.00 0.00 0.00 66 1024.7
20170822134635 64 176 0.0 1.0 0.00 0.00 0.00 64 1024.8
20170822133139 66 177 0.0 5.0 0.00 0.00 0.00 57 1024.5
20170822131637 67 154 1.0 5.0 0.00 0.00 0.00 50 1024.2
20170822130133 67 146 0.0 2.0 0.00 0.00 0.00 53 1024.3
20170822124630 64 184 0.0 1.0 0.00 0.00 0.00 58 1024.4
20170822123134 62 186 0.0 0.0 0.00 0.00 0.00 64 1024.2
20170822121642 63 186 0.0 0.0 0.00 0.00 0.00 64 1023.7
20170822120131 63 186 0.0 0.0 0.00 0.00 0.00 64 1023.3
20170822114624 63 186 0.0 1.0 0.00 0.00 0.00 62 1023.6
20170822113148 64 186 0.0 1.0 0.00 0.00 0.00 58 1023.7
20170822111626 64 182 0.0 2.0 0.00 0.00 0.00 59 1023.8
20170822110124 64 186 0.0 1.0 0.00 0.00 0.00 57 1023.9
20170822104625 63 187 0.0 1.0 0.00 0.00 0.00 61 1024.0
20170822103128 63 187 0.0 0.0 0.00 0.00 0.00 60 1023.9
20170822101628 64 187 0.0 1.0 0.00 0.00 0.00 59 1023.8
20170822100128 64 187 0.0 0.0 0.00 0.00 0.00 60 1024.1
20170822094623 64 187 0.0 0.0 0.00 0.00 0.00 60 1024.3
20170822093152 64 187 0.0 1.0 0.00 0.00 0.00 59 1024.2
20170822091618 64 187 0.0 0.0 0.00 0.00 0.00 58 1023.9
20170822090129 64 187 0.0 1.0 0.00 0.00 0.00 57 1023.9
20170822084609 65 187 0.0 0.0 0.00 0.00 0.00 56 1023.9
20170822083106 65 187 0.0 1.0 0.00 0.00 0.00 55 1023.7
20170822081605 65 187 0.0 0.0 0.00 0.00 0.00 55 1023.4
20170822080129 65 187 0.0 0.0 0.00 0.00 0.00 55 1023.5
20170822074604 65 187 0.0 1.0 0.00 0.00 0.00 55 1023.5
20170822073104 67 187 0.0 3.0 0.00 0.00 0.00 51 1023.6
20170822071610 66 165 0.0 1.0 0.00 0.00 0.00 52 1023.6
20170822070110 67 165 0.0 1.0 0.00 0.00 0.00 51 1023.4
20170822064603 68 167 0.0 2.0 0.00 0.00 0.00 50 1023.5
20170822063101 66 165 0.0 1.0 0.00 0.00 0.00 53 1023.6
20170822061552 67 165 0.0 1.0 0.00 0.00 0.00 52 1023.6
20170822060056 68 166 0.0 0.0 0.00 0.00 0.00 52 1023.8
20170822054615 69 166 0.0 0.0 0.00 0.00 0.00 50 1024.0
20170822053053 70 166 0.0 0.0 0.00 0.00 0.00 48 1023.8
20170822051550 71 167 0.0 1.0 0.00 0.00 0.00 46 1023.8
20170822050053 72 290 1.0 3.0 0.00 0.00 0.00 42 1023.8
20170822044549 72 269 0.0 5.0 0.00 0.00 0.00 41 1023.7
20170822043048 73 196 1.0 3.0 0.00 0.00 0.00 41 1023.7
20170822041547 73 164 0.0 2.0 0.00 0.00 0.00 41 1023.6
20170822040046 73 155 0.0 1.0 0.00 0.00 0.00 41 1023.6
20170822034557 74 144 0.0 2.0 0.00 0.00 0.00 41 1023.6
20170822033638 74 146 0.0 1.0 0.00 0.00 0.00 47 1023.4
20170822032309 75 167 0.0 3.0 0.00 0.00 0.00 40 1023.0
20170822030043 75 121 0.0 2.0 0.00 0.00 0.00 39 1022.9
20170822024555 75 121 0.0 1.0 0.00 0.00 0.00 38 1022.0
20170822023042 75 126 0.0 0.0 0.00 0.00 0.00 39 1022.0
20170822021545 77 126 0.0 3.0 0.00 0.00 0.00 36 1021.8
20170822020041 77 89 0.0 3.0 0.00 0.00 0.00 37 1021.4
20170822014548 78 339 0.0 2.0 0.00 0.00 0.00 37 1021.3
20170822013044 78 254 0.0 3.0 0.00 0.00 0.00 38 1021.2
20170822011539 80 152 0.0 2.0 0.00 0.00 0.00 35 1020.9
20170822010040 81 184 1.0 4.0 0.00 0.00 0.00 35 1020.8
20170822004540 82 244 0.0 8.0 0.00 0.00 0.00 31 1020.5
20170822003041 84 262 0.0 7.0 0.00 0.00 0.00 24 1020.5
20170822001543 86 151 0.0 4.0 0.00 0.00 0.00 18 1020.1
20170822000035 87 151 1.0 5.0 0.00 0.00 0.00 17 1020.3
20170821234556 88 119 0.0 2.0 0.00 0.00 0.00 18 1020.4
20170821233037 89 163 0.0 3.0 0.00 0.00 0.00 19 1020.4
20170821231531 89 167 1.0 6.0 0.00 0.00 0.00 16 1020.5
20170821230040 88 154 0.0 3.0 0.00 0.00 0.00 21 1020.4
20170821224531 87 180 0.0 2.0 0.00 0.00 0.00 19 1020.7
20170821223025 88 185 0.0 2.0 0.00 0.00 0.00 25 1020.8
20170821221523 88 182 0.0 2.0 0.00 0.00 0.00 21 1021.0
20170821220027 87 182 0.0 1.0 0.00 0.00 0.00 21 1021.3
20170821214530 88 172 0.0 2.0 0.00 0.00 0.00 22 1021.5
20170821213019 86 192 0.0 2.0 0.00 0.00 0.00 21 1021.8
20170821211531 87 181 1.0 4.0 0.00 0.00 0.00 19 1022.1
20170821210017 87 172 0.0 5.0 0.00 0.00 0.00 22 1022.2